Weather in Bakali

Russia / Republic of Bashkortostan     55°10′46″N   53°47′44″E
temp.,
°C
wind,
m/s
gust,
m/s
humid.,
%
clouds,
%
prec.,
mm/h
press.,
hPa
HPBL,
m
2 july, sat
sat223:00+12ene33855 3.3 101423
02:00+11ne33895 0.0 101426
05:00+10ne22925 0.0 101429
08:00+14ne358636 0.0 1014195
11:00+18ne45705 0.0 1014596
14:00+20ne45605 0.0 10141231
17:00+21ne44595 0.0 10131647
20:00+19nne35771 0.2 1012123
3 july, sun
sun323:00+14ne22845 0.3 101313
02:00+12ne22870 0.0 101211
05:00+11nne22900 0.0 101217
08:00+15ne35820 0.0 1012189
11:00+19nne346737 0.0 1011693
14:00+21n33595 0.0 10101546
17:00+21n456286 0.0 10091719
20:00+17nne597927 0.2 1009377
4 july, mon
mon423:00+15nne5118490 0.3 1009454
02:00+11n49954 0.0 1009219
05:00+9n410973 0.0 1009217
08:00+13nne6108948 0.0 1009456
11:00+15ne798596 0.0 1010783
14:00+18ne7107219 0.8 10111380
17:00+19ne71065100 1.6 10111807
20:00+16nne4107799 0.2 1012489
5 july, tue
tue523:00+12nne338844 0.2 101439
02:00+10nne22885 0.0 101419
05:00+9nne228898 0.0 101517
08:00+13nne2479100 0.0 1016190
11:00+17ne466430 0.0 1016807
14:00+19nne455897 0.0 10161362
17:00+20nne3459100 0.0 10161360
20:00+19s1172100 0.0 101618
6 july, wed
wed623:00+14sw338475 0.0 101629
02:00+13sw348554 0.0 101650
05:00+12wsw359252 0.0 101771
08:00+16wnw35815 0.0 1017194
11:00+21wnw45675 0.0 1016554
14:00+24wnw45590 0.0 10161034
17:00+25wnw46620 0.0 10151436
20:00+22w497873 0.2 1015284